This is the latest recevied weather packets stored in our database for station/object KE5QKR. If no packets are shown the sender has not sent any weather packets the latest 10 day(s).
| Time | Temp. | Humidity | Pressure | Rain* | Wind** | Luminosity | Snow |
|---|---|---|---|---|---|---|---|
| 1777549559 | 18.89° C | 99% | 1010.1 hPa | 0 mm | - | 35 W/m² | - |
| 1777549255 | 18.89° C | 99% | 1009.7 hPa | 0 mm | - | 24 W/m² | - |
| 1777548952 | 18.89° C | 99% | 1009.7 hPa | 0 mm | - | 16 W/m² | - |
| 1777548649 | 18.89° C | 99% | 1009.7 hPa | 0 mm | - | 10 W/m² | - |
| 1777548345 | 18.89° C | 99% | 1009.5 hPa | 0 mm | - | 6 W/m² | - |
| 1777548043 | 18.33° C | 99% | 1009.5 hPa | 0 mm | - | 4 W/m² | - |
| 1777547739 | 18.33° C | 99% | 1009.2 hPa | 0 mm | - | 2 W/m² | - |
| 1777547435 | 18.33° C | 99% | 1009.2 hPa | 0 mm | - | 1 W/m² | - |
| 1777547133 | 18.33° C | 99% | 1009.1 hPa | 0 mm | - | 0 W/m² | - |
| 1777546830 | 18.89° C | 99% | 1008.9 hPa | 0 mm | - | 0 W/m² | - |
| 1777546526 | 18.33° C | 99% | 1008.8 hPa | 0 mm | - | 0 W/m² | - |
| 1777546223 | 18.33° C | 99% | 1009 hPa | 0 mm | - | 0 W/m² | - |
| 1777545920 | 18.89° C | 99% | 1008.9 hPa | 0 mm | - | 0 W/m² | - |
| 1777545617 | 18.33° C | 99% | 1008.9 hPa | 0 mm | - | 0 W/m² | - |
| 1777545313 | 18.89° C | 99% | 1008.8 hPa | 0 mm | - | 0 W/m² | - |
| 1777545011 | 18.89° C | 99% | 1008.7 hPa | 0 mm | - | 0 W/m² | - |
| 1777544708 | 18.89° C | 99% | 1008.6 hPa | 0 mm | - | 0 W/m² | - |
| 1777544402 | 18.89° C | 99% | 1008.3 hPa | 0 mm | - | 0 W/m² | - |
| 1777544099 | 18.89° C | 99% | 1008.5 hPa | 0 mm | - | 0 W/m² | - |
| 1777543797 | 18.89° C | 99% | 1008.5 hPa | 0 mm | - | 0 W/m² | - |
| 1777543493 | 18.89° C | 99% | 1008.4 hPa | 0 mm | - | 0 W/m² | - |
| 1777543189 | 18.89° C | 99% | 1008.5 hPa | 0 mm | - | 0 W/m² | - |
| 1777542885 | 18.89° C | 99% | 1008.3 hPa | 1.27 mm | - | 0 W/m² | - |
| 1777542582 | 18.89° C | 99% | 1008.3 hPa | 0 mm | - | 0 W/m² | - |
| 1777542278 | 18.89° C | 99% | 1008.1 hPa | 0 mm | - | 0 W/m² | - |
* Rain latest hour (hover to see other rain measurements)
** Current wind speed in m/s (hover to see current wind gust speed)